Hourly Weather Barry

Today, 21 April, Wednesday

Time Temperature Precipitation Wind Pressure Humidity
00:00 +8°C° 0 mm 2 mps 761 mmHg 88%
01:00 +8°C° 0 mm 2 mps 761 mmHg 88%
02:00 +7°C° 0 mm 3 mps 761 mmHg 87%
03:00 +7°C° 0 mm 3 mps 761 mmHg 87%
04:00 +7°C° 0 mm 3 mps 761 mmHg 87%
05:00 +7°C° 0 mm 3 mps 761 mmHg 88%
06:00 +6°C° 0 mm 4 mps 761 mmHg 88%
07:00 +7°C° 0 mm 5 mps 762 mmHg 85%
08:00 +8°C° 0 mm 6 mps 762 mmHg 83%
09:00 +10°C° 0 mm 7 mps 763 mmHg 80%
10:00 +10°C° 0 mm 7 mps 763 mmHg 77%
11:00 +11°C° 0 mm 7 mps 763 mmHg 73%
12:00 +12°C° 0 mm 7 mps 763 mmHg 69%
13:00 +11°C° 0 mm 7 mps 763 mmHg 70%
14:00 +11°C° 0 mm 7 mps 763 mmHg 71%
15:00 +11°C° 0 mm 8 mps 763 mmHg 72%
16:00 +10°C° 0 mm 7 mps 763 mmHg 73%
17:00 +10°C° 0 mm 7 mps 763 mmHg 74%
18:00 +9°C° 0 mm 7 mps 764 mmHg 75%
19:00 +8°C° 0 mm 7 mps 764 mmHg 73%
20:00 +7°C° 0 mm 6 mps 765 mmHg 72%
21:00 +7°C° 0 mm 6 mps 765 mmHg 70%
22:00 +4°C° 0 mm 6 mps 765 mmHg 74%
23:00 +3°C° 0 mm 6 mps 766 mmHg 77%

Tomorrow, 22 April, Thursday

Time Temperature Precipitation Wind Pressure Humidity
00:00 +2°C° 0 mm 6 mps 766 mmHg 81%
01:00 +1°C° 0 mm 6 mps 766 mmHg 84%
02:00 0°C° 0 mm 5 mps 766 mmHg 87%
03:00 -1°C° 0 mm 5 mps 766 mmHg 91%
04:00 -1°C° 0 mm 5 mps 767 mmHg 89%
05:00 -1°C° 0 mm 5 mps 767 mmHg 88%
06:00 -1°C° 0 mm 5 mps 767 mmHg 86%
07:00 +1°C° 0 mm 5 mps 768 mmHg 78%
08:00 +3°C° 0 mm 6 mps 768 mmHg 70%
09:00 +5°C° 0 mm 6 mps 768 mmHg 61%
10:00 +8°C° 0 mm 6 mps 768 mmHg 58%
11:00 +9°C° 0 mm 6 mps 768 mmHg 54%
12:00 +10°C° 0 mm 6 mps 768 mmHg 51%
13:00 +11°C° 0 mm 6 mps 767 mmHg 51%
14:00 +12°C° 0 mm 5 mps 767 mmHg 51%
15:00 +13°C° 0 mm 5 mps 767 mmHg 51%
16:00 +12°C° 0 mm 5 mps 767 mmHg 57%
17:00 +12°C° 0 mm 5 mps 767 mmHg 63%
18:00 +11°C° 0 mm 4 mps 768 mmHg 69%
19:00 +8°C° 0 mm 4 mps 768 mmHg 74%
20:00 +7°C° 0 mm 4 mps 768 mmHg 79%
21:00 +5°C° 0 mm 4 mps 769 mmHg 84%
22:00 +4°C° 0 mm 4 mps 769 mmHg 85%
23:00 +4°C° 0 mm 4 mps 769 mmHg 87%

Day after tomorrow, 23 April, Friday

Time Temperature Precipitation Wind Pressure Humidity
00:00 +3°C° 0 mm 4 mps 769 mmHg 88%
01:00 +1°C° 0 mm 4 mps 769 mmHg 88%
02:00 +1°C° 0 mm 4 mps 769 mmHg 88%
03:00 0°C° 0 mm 4 mps 769 mmHg 88%
04:00 +1°C° 0 mm 4 mps 769 mmHg 86%
05:00 +1°C° 0 mm 4 mps 769 mmHg 84%
06:00 +1°C° 0 mm 4 mps 769 mmHg 82%
07:00 +3°C° 0 mm 5 mps 769 mmHg 75%
08:00 +5°C° 0 mm 6 mps 769 mmHg 67%
09:00 +8°C° 0 mm 6 mps 769 mmHg 59%
10:00 +9°C° 0 mm 6 mps 769 mmHg 57%
11:00 +11°C° 0 mm 6 mps 769 mmHg 54%
12:00 +13°C° 0 mm 6 mps 769 mmHg 51%
13:00 +13°C° 0 mm 6 mps 769 mmHg 51%
14:00 +14°C° 0 mm 6 mps 768 mmHg 51%
15:00 +14°C° 0 mm 6 mps 768 mmHg 51%
16:00 +13°C° 0 mm 5 mps 768 mmHg 58%
17:00 +12°C° 0 mm 5 mps 768 mmHg 64%
18:00 +12°C° 0 mm 4 mps 768 mmHg 70%
19:00 +10°C° 0 mm 4 mps 768 mmHg 73%
20:00 +7°C° 0 mm 4 mps 768 mmHg 76%
21:00 +6°C° 0 mm 4 mps 769 mmHg 79%
22:00 +5°C° 0 mm 4 mps 769 mmHg 74%
23:00 +4°C° 0 mm 4 mps 769 mmHg 69%

24 April, Saturday

Time Temperature Precipitation Wind Pressure Humidity
00:00 +4°C° 0 mm 4 mps 769 mmHg 64%
01:00 +2°C° 0 mm 5 mps 768 mmHg 64%
02:00 +2°C° 0 mm 5 mps 768 mmHg 63%
03:00 +2°C° 0 mm 5 mps 768 mmHg 62%
04:00 +2°C° 0 mm 5 mps 768 mmHg 64%
05:00 +2°C° 0 mm 5 mps 768 mmHg 66%
06:00 +2°C° 0 mm 5 mps 768 mmHg 68%
07:00 +5°C° 0 mm 5 mps 768 mmHg 67%
08:00 +5°C° 0 mm 6 mps 768 mmHg 66%
09:00 +8°C° 0 mm 6 mps 768 mmHg 65%
10:00 +9°C° 0 mm 6 mps 768 mmHg 64%
11:00 +10°C° 0 mm 7 mps 768 mmHg 62%
12:00 +12°C° 0 mm 7 mps 768 mmHg 60%
13:00 +12°C° 0 mm 7 mps 767 mmHg 60%
14:00 +14°C° 0 mm 7 mps 767 mmHg 60%
15:00 +14°C° 0 mm 7 mps 767 mmHg 59%
16:00 +12°C° 0 mm 7 mps 767 mmHg 63%
17:00 +12°C° 0 mm 7 mps 767 mmHg 68%
18:00 +11°C° 0 mm 7 mps 767 mmHg 72%
19:00 +10°C° 0 mm 6 mps 767 mmHg 74%
20:00 +9°C° 0 mm 6 mps 768 mmHg 77%
21:00 +7°C° 0 mm 6 mps 768 mmHg 79%
22:00 +7°C° 0 mm 6 mps 768 mmHg 79%
23:00 +5°C° 0 mm 6 mps 768 mmHg 78%

25 April, Sunday

Time Temperature Precipitation Wind Pressure Humidity
00:00 +5°C° 0 mm 6 mps 768 mmHg 77%
01:00 +4°C° 0 mm 6 mps 768 mmHg 80%
02:00 +3°C° 0 mm 6 mps 768 mmHg 82%
03:00 +3°C° 0 mm 6 mps 768 mmHg 85%
04:00 +3°C° 0 mm 6 mps 768 mmHg 85%
05:00 +3°C° 0 mm 6 mps 768 mmHg 85%
06:00 +3°C° 0 mm 6 mps 768 mmHg 85%
07:00 +4°C° 0 mm 7 mps 768 mmHg 79%
08:00 +6°C° 0 mm 7 mps 767 mmHg 73%
09:00 +9°C° 0 mm 8 mps 767 mmHg 66%
10:00 +10°C° 0 mm 8 mps 767 mmHg 64%
11:00 +11°C° 0 mm 8 mps 767 mmHg 61%
12:00 +12°C° 0 mm 8 mps 767 mmHg 59%
13:00 +13°C° 0 mm 8 mps 766 mmHg 59%
14:00 +14°C° 0 mm 7 mps 766 mmHg 59%
15:00 +14°C° 0 mm 7 mps 765 mmHg 59%
16:00 +14°C° 0 mm 7 mps 765 mmHg 64%
17:00 +13°C° 0 mm 6 mps 765 mmHg 68%
18:00 +11°C° 0 mm 6 mps 765 mmHg 72%
19:00 +10°C° 0 mm 6 mps 765 mmHg 77%
20:00 +9°C° 0 mm 5 mps 765 mmHg 82%
21:00 +7°C° 0 mm 5 mps 765 mmHg 86%
22:00 +6°C° 0 mm 5 mps 765 mmHg 87%
23:00 +5°C° 0 mm 5 mps 765 mmHg 87%

26 April, Monday

Time Temperature Precipitation Wind Pressure Humidity
00:00 +3°C° 0 mm 5 mps 765 mmHg 87%
01:00 +2°C° 0 mm 5 mps 764 mmHg 87%
02:00 +2°C° 0 mm 5 mps 764 mmHg 88%
03:00 +1°C° 0 mm 5 mps 764 mmHg 88%
04:00 +1°C° 0 mm 5 mps 763 mmHg 87%
05:00 +1°C° 0 mm 5 mps 763 mmHg 86%
06:00 +1°C° 0 mm 5 mps 763 mmHg 85%
07:00 +3°C° 0 mm 5 mps 763 mmHg 77%
08:00 +6°C° 0 mm 5 mps 762 mmHg 69%
09:00 +8°C° 0 mm 6 mps 762 mmHg 62%
10:00 +9°C° 0 mm 5 mps 761 mmHg 58%
11:00 +12°C° 0 mm 5 mps 761 mmHg 55%
12:00 +13°C° 0 mm 4 mps 760 mmHg 51%
13:00 +13°C° 0 mm 4 mps 760 mmHg 51%
14:00 +14°C° 0 mm 4 mps 759 mmHg 51%
15:00 +14°C° 0 mm 3 mps 758 mmHg 51%
16:00 +14°C° 0 mm 3 mps 758 mmHg 57%
17:00 +14°C° 0 mm 2 mps 758 mmHg 63%
18:00 +13°C° 0 mm 2 mps 757 mmHg 69%
19:00 +10°C° 0 mm 2 mps 757 mmHg 73%
20:00 +9°C° 0 mm 2 mps 757 mmHg 77%
21:00 +7°C° 0 mm 2 mps 757 mmHg 81%
22:00 +7°C° 0 mm 2 mps 757 mmHg 82%
23:00 +6°C° 0 mm 2 mps 756 mmHg 83%
Show more